Time,TemperatureF,DewpointF,PressureIn,WindDirection,WindDirectionDegrees,WindSpeedMPH,WindSpeedGustMPH,Humidity,HourlyPrecipIn,Conditions,Clouds,dailyrainin,SoftwareType,DateUTC
2013-06-22 00:01:00,65.3,60.9,29.92,South,180,0.0,0.0,86,0.00,,,0.00,WUHU216HW,2013-06-22 05:01:00,
2013-06-22 00:06:00,65.3,60.6,29.94,WNW,293,0.0,0.0,85,0.00,,,0.00,WUHU216HW,2013-06-22 05:06:00,
2013-06-22 00:11:00,65.4,61.1,29.94,NW,315,0.0,0.0,86,0.00,,,0.00,WUHU216HW,2013-06-22 05:11:00,
2013-06-22 00:16:00,65.4,61.1,29.93,WSW,248,0.0,0.0,86,0.00,,,0.00,WUHU216HW,2013-06-22 05:16:00,
2013-06-22 00:21:00,65.8,61.1,29.95,NNW,338,0.0,0.0,85,0.00,,,0.00,WUHU216HW,2013-06-22 05:21:00,
2013-06-22 00:26:00,66.3,61.7,29.94,NW,315,0.0,0.0,85,0.00,,,0.00,WUHU216HW,2013-06-22 05:26:00,
2013-06-22 00:31:00,66.5,61.5,29.94,SSW,203,0.0,0.0,84,0.00,,,0.00,WUHU216HW,2013-06-22 05:31:00,
2013-06-22 00:36:00,66.7,61.5,29.94,West,270,0.0,0.0,83,0.00,,,0.00,WUHU216HW,2013-06-22 05:36:00,
2013-06-22 00:41:00,67.2,61.3,29.93,West,270,0.0,0.0,81,0.00,,,0.00,WUHU216HW,2013-06-22 05:41:00,
2013-06-22 00:46:00,67.8,61.8,29.92,North,0,0.0,0.0,81,0.00,,,0.00,WUHU216HW,2013-06-22 05:46:00,
2013-06-22 00:51:00,68.0,61.7,29.92,NNW,338,0.0,0.0,80,0.00,,,0.00,WUHU216HW,2013-06-22 05:51:00,
2013-06-22 00:56:00,68.1,61.4,29.91,NW,315,0.0,0.0,79,0.00,,,0.00,WUHU216HW,2013-06-22 05:56:00,
2013-06-22 01:01:00,67.2,60.9,29.91,NNW,338,0.0,0.0,80,0.00,,,0.00,WUHU216HW,2013-06-22 06:01:00,
2013-06-22 01:06:00,66.5,60.5,29.91,NNW,338,0.0,0.0,81,0.00,,,0.00,WUHU216HW,2013-06-22 06:06:00,
2013-06-22 01:11:00,66.0,60.0,29.92,WNW,293,0.0,0.0,81,0.00,,,0.00,WUHU216HW,2013-06-22 06:11:00,
2013-06-22 01:16:00,66.0,60.3,29.92,NNE,23,0.0,0.0,82,0.00,,,0.00,WUHU216HW,2013-06-22 06:16:00,
2013-06-22 01:21:00,65.8,60.1,29.91,NNE,23,0.0,0.0,82,0.00,,,0.00,WUHU216HW,2013-06-22 06:21:00,
2013-06-22 01:26:00,65.4,59.8,29.93,NNE,23,0.0,0.0,82,0.00,,,0.00,WUHU216HW,2013-06-22 06:26:00,
2013-06-22 01:31:00,65.3,59.6,29.93,NNE,23,0.0,0.0,82,0.00,,,0.00,WUHU216HW,2013-06-22 06:31:00,
2013-06-22 01:36:00,65.1,59.8,29.95,SW,225,0.0,0.0,83,0.02,,,0.02,WUHU216HW,2013-06-22 06:36:00,
2013-06-22 01:41:00,64.9,59.6,29.96,South,180,0.0,0.0,83,0.02,,,0.02,WUHU216HW,2013-06-22 06:41:00,
2013-06-22 01:46:00,64.9,59.9,29.97,SSE,158,0.0,0.0,84,0.02,,,0.02,WUHU216HW,2013-06-22 06:46:00,
2013-06-22 01:51:00,64.9,60.3,29.97,SSE,158,0.0,0.0,85,0.02,,,0.02,WUHU216HW,2013-06-22 06:51:00,
2013-06-22 01:56:00,64.9,60.3,29.97,SSE,158,0.0,0.0,85,0.02,,,0.02,WUHU216HW,2013-06-22 06:56:00,
2013-06-22 02:01:00,64.7,60.4,29.97,South,180,0.0,0.0,86,0.04,,,0.04,WUHU216HW,2013-06-22 07:01:00,
2013-06-22 02:06:00,64.7,60.4,29.98,SSE,158,0.0,0.0,86,0.04,,,0.04,WUHU216HW,2013-06-22 07:06:00,
2013-06-22 02:11:00,64.7,60.4,29.98,SSE,158,0.0,0.0,86,0.06,,,0.06,WUHU216HW,2013-06-22 07:11:00,
2013-06-22 02:16:00,64.5,60.3,29.98,SSE,158,0.0,0.0,86,0.08,,,0.06,WUHU216HW,2013-06-22 07:16:00,
2013-06-22 02:21:00,64.4,60.1,29.97,SW,225,0.0,0.0,86,0.08,,,0.08,WUHU216HW,2013-06-22 07:21:00,
2013-06-22 02:26:00,64.2,59.9,29.96,WNW,293,0.0,0.0,86,0.10,,,0.10,WUHU216HW,2013-06-22 07:26:00,
2013-06-22 02:31:00,64.2,59.7,29.96,North,0,0.0,0.0,86,0.12,,,0.10,WUHU216HW,2013-06-22 07:31:00,
2013-06-22 02:36:00,64.0,60.1,29.96,NW,315,0.0,0.0,87,0.12,,,0.14,WUHU216HW,2013-06-22 07:36:00,
2013-06-22 02:41:00,63.8,59.9,29.96,SSW,203,0.0,0.0,87,0.14,,,0.16,WUHU216HW,2013-06-22 07:41:00,
2013-06-22 02:46:00,63.6,59.7,29.96,WNW,293,0.0,0.0,87,0.16,,,0.18,WUHU216HW,2013-06-22 07:46:00,
2013-06-22 02:51:00,63.6,60.1,29.96,West,270,0.0,0.0,88,0.18,,,0.18,WUHU216HW,2013-06-22 07:51:00,
2013-06-22 02:56:00,63.6,60.1,29.96,WNW,293,0.0,0.0,88,0.16,,,0.20,WUHU216HW,2013-06-22 07:56:00,
2013-06-22 03:01:00,63.6,60.1,29.95,NNW,338,0.0,0.0,88,0.20,,,0.24,WUHU216HW,2013-06-22 08:01:00,
2013-06-22 03:06:00,63.6,60.1,29.95,NNW,338,0.0,0.0,88,0.18,,,0.24,WUHU216HW,2013-06-22 08:06:00,
2013-06-22 03:11:00,63.6,60.1,29.95,West,270,0.0,0.0,88,0.20,,,0.26,WUHU216HW,2013-06-22 08:11:00,
2013-06-22 03:16:00,63.6,60.1,29.95,SW,225,0.0,0.0,88,0.22,,,0.28,WUHU216HW,2013-06-22 08:16:00,
2013-06-22 03:21:00,63.6,60.1,29.95,WNW,293,0.0,0.0,88,0.22,,,0.30,WUHU216HW,2013-06-22 08:21:00,
2013-06-22 03:26:00,63.6,60.1,29.95,WSW,248,0.0,0.0,88,0.22,,,0.32,WUHU216HW,2013-06-22 08:26:00,
2013-06-22 03:31:00,63.6,60.1,29.96,SSW,203,0.0,0.0,88,0.20,,,0.32,WUHU216HW,2013-06-22 08:31:00,
2013-06-22 03:36:00,63.5,60.2,29.95,WNW,293,0.0,0.0,89,0.20,,,0.34,WUHU216HW,2013-06-22 08:36:00,
2013-06-22 03:41:00,63.6,60.4,29.95,WNW,293,0.0,0.0,89,0.18,,,0.34,WUHU216HW,2013-06-22 08:41:00,
2013-06-22 03:46:00,63.6,60.4,29.93,North,0,0.0,0.0,89,0.20,,,0.38,WUHU216HW,2013-06-22 08:46:00,
2013-06-22 03:51:00,63.6,60.4,29.90,NW,315,0.0,0.0,89,0.20,,,0.38,WUHU216HW,2013-06-22 08:51:00,
2013-06-22 03:56:00,63.6,60.4,29.91,NW,315,0.0,0.0,89,0.20,,,0.40,WUHU216HW,2013-06-22 08:56:00,
2013-06-22 04:01:00,63.6,60.4,29.93,WNW,293,0.0,0.0,89,0.16,,,0.40,WUHU216HW,2013-06-22 09:01:00,
2013-06-22 04:06:00,63.6,60.4,29.93,NW,315,0.0,0.0,89,0.14,,,0.40,WUHU216HW,2013-06-22 09:06:00,
2013-06-22 04:11:00,63.6,60.4,29.93,ENE,68,0.0,0.0,89,0.16,,,0.42,WUHU216HW,2013-06-22 09:11:00,
2013-06-22 04:16:00,63.6,60.4,29.94,WNW,293,0.0,0.0,89,0.14,,,0.42,WUHU216HW,2013-06-22 09:16:00,
2013-06-22 04:21:00,63.6,60.4,29.94,WNW,293,0.0,0.0,89,0.14,,,0.45,WUHU216HW,2013-06-22 09:21:00,
2013-06-22 04:26:00,63.6,60.4,29.95,WNW,293,0.0,0.0,89,0.14,,,0.47,WUHU216HW,2013-06-22 09:26:00,
2013-06-22 04:31:00,63.6,60.4,29.95,NW,315,0.0,0.0,89,0.14,,,0.47,WUHU216HW,2013-06-22 09:31:00,
2013-06-22 04:36:00,63.6,60.4,29.94,NW,315,0.0,0.0,89,0.14,,,0.48,WUHU216HW,2013-06-22 09:36:00,
2013-06-22 04:41:00,63.8,60.6,29.93,North,0,0.0,0.0,89,0.10,,,0.48,WUHU216HW,2013-06-22 09:41:00,
2013-06-22 04:46:00,63.8,60.9,29.95,WNW,293,0.0,0.0,90,0.12,,,0.50,WUHU216HW,2013-06-22 09:46:00,
2013-06-22 04:51:00,63.6,60.8,29.96,WNW,293,0.0,0.0,90,0.10,,,0.50,WUHU216HW,2013-06-22 09:51:00,
2013-06-22 04:56:00,63.8,60.9,29.95,NW,315,0.0,0.0,90,0.10,,,0.50,WUHU216HW,2013-06-22 09:56:00,
2013-06-22 05:01:00,64.0,61.1,29.93,NW,315,0.0,0.0,90,0.10,,,0.50,WUHU216HW,2013-06-22 10:01:00,
2013-06-22 05:06:00,64.0,61.1,29.94,NW,315,0.0,0.0,90,0.08,,,0.50,WUHU216HW,2013-06-22 10:06:00,
2013-06-22 05:11:00,63.8,60.9,29.94,NW,315,0.0,0.0,90,0.10,,,0.52,WUHU216HW,2013-06-22 10:11:00,
2013-06-22 05:16:00,64.0,61.1,29.94,NNW,338,0.0,0.0,90,0.10,,,0.52,WUHU216HW,2013-06-22 10:16:00,
2013-06-22 05:21:00,64.0,61.1,29.95,WNW,293,0.0,0.0,90,0.10,,,0.55,WUHU216HW,2013-06-22 10:21:00,
2013-06-22 05:26:00,63.8,60.9,29.96,SSW,203,0.0,0.0,90,0.12,,,0.57,WUHU216HW,2013-06-22 10:26:00,
2013-06-22 05:31:00,63.8,60.9,29.99,South,180,0.0,0.0,90,0.12,,,0.59,WUHU216HW,2013-06-22 10:31:00,
2013-06-22 05:36:00,63.8,60.9,29.99,South,180,0.0,0.0,90,0.10,,,0.59,WUHU216HW,2013-06-22 10:36:00,
2013-06-22 05:41:00,63.8,60.9,30.00,SSE,158,0.0,0.0,90,0.08,,,0.59,WUHU216HW,2013-06-22 10:41:00,
2013-06-22 05:46:00,64.0,61.1,30.01,SSE,158,0.0,0.0,90,0.10,,,0.61,WUHU216HW,2013-06-22 10:46:00,
2013-06-22 05:51:00,63.8,60.9,29.99,SSE,158,0.0,0.0,90,0.10,,,0.61,WUHU216HW,2013-06-22 10:51:00,
2013-06-22 05:56:00,64.0,61.1,29.99,SSE,158,0.0,0.0,90,0.10,,,0.61,WUHU216HW,2013-06-22 10:56:00,
2013-06-22 06:01:00,64.0,61.1,29.96,ESE,113,0.0,0.0,90,0.10,,,0.61,WUHU216HW,2013-06-22 11:01:00,
2013-06-22 06:06:00,64.0,61.1,29.95,ENE,68,0.0,0.0,90,0.08,,,0.61,WUHU216HW,2013-06-22 11:06:00,
2013-06-22 06:11:00,64.0,61.1,29.90,NE,45,0.0,0.0,90,0.08,,,0.61,WUHU216HW,2013-06-22 11:11:00,
2013-06-22 06:16:00,64.0,61.1,29.89,North,0,0.0,0.0,90,0.08,,,0.61,WUHU216HW,2013-06-22 11:16:00,
2013-06-22 06:21:00,64.2,61.6,29.89,ENE,68,0.0,0.0,91,0.06,,,0.63,WUHU216HW,2013-06-22 11:21:00,
2013-06-22 06:26:00,64.0,61.4,29.89,ENE,68,0.0,0.0,91,0.04,,,0.63,WUHU216HW,2013-06-22 11:26:00,
2013-06-22 06:31:00,64.2,61.6,29.88,ENE,68,0.0,0.0,91,0.04,,,0.63,WUHU216HW,2013-06-22 11:31:00,
2013-06-22 06:36:00,64.0,61.4,29.89,WNW,293,0.0,0.0,91,0.04,,,0.63,WUHU216HW,2013-06-22 11:36:00,
2013-06-22 06:41:00,64.2,61.6,29.89,NE,45,0.0,0.0,91,0.02,,,0.63,WUHU216HW,2013-06-22 11:41:00,
2013-06-22 06:46:00,64.2,61.6,29.88,NNW,338,0.0,0.0,91,0.02,,,0.63,WUHU216HW,2013-06-22 11:46:00,
2013-06-22 06:51:00,64.2,61.6,29.88,ENE,68,0.0,0.0,91,0.02,,,0.63,WUHU216HW,2013-06-22 11:51:00,
2013-06-22 06:56:00,64.2,61.6,29.87,NE,45,0.0,0.0,91,0.02,,,0.63,WUHU216HW,2013-06-22 11:56:00,
2013-06-22 07:01:00,64.2,61.6,29.87,North,0,0.0,0.0,91,0.02,,,0.63,WUHU216HW,2013-06-22 12:01:00,
2013-06-22 07:06:00,64.2,61.6,29.87,NE,45,0.0,0.0,91,0.02,,,0.63,WUHU216HW,2013-06-22 12:06:00,
2013-06-22 07:11:00,64.2,61.6,29.87,East,90,0.0,0.0,91,0.02,,,0.63,WUHU216HW,2013-06-22 12:11:00,
2013-06-22 07:16:00,64.2,61.6,29.86,ESE,113,0.0,0.0,91,0.02,,,0.63,WUHU216HW,2013-06-22 12:16:00,
2013-06-22 07:21:00,64.2,61.6,29.86,ENE,68,0.0,0.0,91,0.00,,,0.63,WUHU216HW,2013-06-22 12:21:00,
2013-06-22 07:26:00,64.5,61.9,29.85,East,90,0.0,0.0,91,0.00,,,0.63,WUHU216HW,2013-06-22 12:26:00,
2013-06-22 07:31:00,64.5,61.9,29.84,ENE,68,0.0,0.0,91,0.00,,,0.63,WUHU216HW,2013-06-22 12:31:00,
2013-06-22 07:36:00,64.7,62.1,29.85,ENE,68,0.0,0.0,91,0.00,,,0.63,WUHU216HW,2013-06-22 12:36:00,
2013-06-22 07:41:00,64.9,62.2,29.86,SE,135,0.0,0.0,91,0.00,,,0.63,WUHU216HW,2013-06-22 12:41:00,
2013-06-22 07:46:00,65.1,62.4,29.87,SE,135,0.0,0.0,91,0.00,,,0.63,WUHU216HW,2013-06-22 12:46:00,
2013-06-22 07:51:00,65.3,62.6,29.86,ENE,68,0.0,0.0,91,0.00,,,0.63,WUHU216HW,2013-06-22 12:51:00,
2013-06-22 07:56:00,65.4,62.7,29.87,SE,135,0.0,0.0,91,0.00,,,0.63,WUHU216HW,2013-06-22 12:56:00,
2013-06-22 08:01:00,66.0,63.2,29.87,SE,135,0.0,0.0,91,0.00,,,0.63,WUHU216HW,2013-06-22 13:01:00,
2013-06-22 08:06:00,66.3,63.6,29.88,ENE,68,0.0,0.0,91,0.00,,,0.63,WUHU216HW,2013-06-22 13:06:00,
2013-06-22 08:11:00,66.5,63.8,29.88,NE,45,0.0,0.0,91,0.00,,,0.63,WUHU216HW,2013-06-22 13:11:00,
2013-06-22 08:16:00,67.1,64.3,29.89,SE,135,0.0,0.0,91,0.00,,,0.63,WUHU216HW,2013-06-22 13:16:00,
2013-06-22 08:21:00,67.6,64.8,29.89,East,90,0.0,0.0,91,0.00,,,0.63,WUHU216HW,2013-06-22 13:21:00,
2013-06-22 08:26:00,67.8,65.0,29.90,ESE,113,0.0,0.0,91,0.00,,,0.63,WUHU216HW,2013-06-22 13:26:00,
2013-06-22 08:31:00,68.1,65.4,29.90,SE,135,0.0,0.0,91,0.00,,,0.63,WUHU216HW,2013-06-22 13:31:00,
2013-06-22 08:36:00,68.0,65.2,29.91,SSE,158,0.0,0.0,91,0.00,,,0.63,WUHU216HW,2013-06-22 13:36:00,
2013-06-22 08:41:00,68.0,65.2,29.92,SSE,158,0.0,0.0,91,0.00,,,0.63,WUHU216HW,2013-06-22 13:41:00,
2013-06-22 08:46:00,67.8,64.7,29.93,SSE,158,0.0,0.0,90,0.00,,,0.63,WUHU216HW,2013-06-22 13:46:00,
2013-06-22 08:51:00,67.8,64.7,29.93,SSE,158,0.0,0.0,90,0.00,,,0.63,WUHU216HW,2013-06-22 13:51:00,
2013-06-22 08:56:00,67.8,64.7,29.93,SSW,203,0.0,0.0,90,0.00,,,0.63,WUHU216HW,2013-06-22 13:56:00,
2013-06-22 09:01:00,68.1,65.1,29.93,SSE,158,0.0,0.0,90,0.00,,,0.63,WUHU216HW,2013-06-22 14:01:00,
2013-06-22 09:06:00,68.1,65.1,29.93,SSE,158,0.0,0.0,90,0.00,,,0.63,WUHU216HW,2013-06-22 14:06:00,
2013-06-22 09:11:00,68.5,65.4,29.93,SSE,158,0.0,0.0,90,0.00,,,0.63,WUHU216HW,2013-06-22 14:11:00,
2013-06-22 09:16:00,69.0,66.0,29.93,SE,135,0.0,0.0,90,0.00,,,0.63,WUHU216HW,2013-06-22 14:16:00,
2013-06-22 09:21:00,69.4,66.3,29.94,SSE,158,0.0,0.0,90,0.00,,,0.63,WUHU216HW,2013-06-22 14:21:00,
2013-06-22 09:26:00,69.4,66.0,29.94,SSE,158,0.0,0.0,89,0.00,,,0.63,WUHU216HW,2013-06-22 14:26:00,
2013-06-22 09:31:00,69.6,66.2,29.94,SE,135,0.0,0.0,89,0.00,,,0.63,WUHU216HW,2013-06-22 14:31:00,
2013-06-22 09:36:00,69.6,66.2,29.93,SE,135,0.0,0.0,89,0.00,,,0.63,WUHU216HW,2013-06-22 14:36:00,
2013-06-22 09:41:00,69.6,65.8,29.93,SE,135,0.0,0.0,88,0.00,,,0.63,WUHU216HW,2013-06-22 14:41:00,
2013-06-22 09:49:00,69.9,66.2,29.93,SSE,158,0.0,0.0,88,0.00,,,0.63,WUHU216HW,2013-06-22 14:49:00,
2013-06-22 09:58:00,70.7,66.9,29.93,NE,45,0.0,0.0,88,0.00,,,0.63,WUHU216HW,2013-06-22 14:58:00,
2013-06-22 10:03:00,70.8,66.7,29.93,SSE,158,0.0,0.0,87,0.00,,,0.63,WUHU216HW,2013-06-22 15:03:00,
2013-06-22 10:08:00,71.0,66.9,29.93,SSE,158,0.0,0.0,87,0.00,,,0.63,WUHU216HW,2013-06-22 15:08:00,
2013-06-22 10:13:00,71.2,67.1,29.93,SSE,158,0.0,0.0,87,0.00,,,0.63,WUHU216HW,2013-06-22 15:13:00,
2013-06-22 10:18:00,71.7,67.8,29.93,South,180,0.0,0.0,87,0.00,,,0.63,WUHU216HW,2013-06-22 15:18:00,
2013-06-22 10:23:00,72.6,68.5,29.94,South,180,0.0,0.0,87,0.00,,,0.63,WUHU216HW,2013-06-22 15:23:00,
2013-06-22 10:28:00,73.5,69.4,29.93,South,180,0.0,0.0,87,0.00,,,0.63,WUHU216HW,2013-06-22 15:28:00,
2013-06-22 10:33:00,74.8,70.0,29.93,North,0,0.0,0.0,85,0.00,,,0.63,WUHU216HW,2013-06-22 15:33:00,
2013-06-22 10:38:00,75.0,69.5,29.93,SSW,203,0.0,0.0,83,0.00,,,0.63,WUHU216HW,2013-06-22 15:38:00,
2013-06-22 10:43:00,75.2,69.7,29.93,SSW,203,0.0,0.0,83,0.00,,,0.63,WUHU216HW,2013-06-22 15:43:00,
2013-06-22 10:48:00,75.2,69.3,29.93,SSW,203,0.0,0.0,81,0.00,,,0.63,WUHU216HW,2013-06-22 15:48:00,
2013-06-22 10:53:00,75.5,69.3,29.93,South,180,0.0,0.0,81,0.00,,,0.63,WUHU216HW,2013-06-22 15:53:00,
2013-06-22 10:58:00,75.5,69.3,29.93,South,180,0.0,0.0,81,0.00,,,0.63,WUHU216HW,2013-06-22 15:58:00,
2013-06-22 11:03:00,75.5,69.0,29.93,South,180,0.0,0.0,80,0.00,,,0.63,WUHU216HW,2013-06-22 16:03:00,
2013-06-22 11:08:00,75.5,69.0,29.93,South,180,0.0,0.0,80,0.00,,,0.63,WUHU216HW,2013-06-22 16:08:00,
2013-06-22 11:13:00,75.5,69.0,29.93,South,180,0.0,0.0,80,0.00,,,0.63,WUHU216HW,2013-06-22 16:13:00,
2013-06-22 11:18:00,75.5,69.0,29.93,South,180,0.0,0.0,80,0.00,,,0.63,WUHU216HW,2013-06-22 16:18:00,
2013-06-22 11:23:00,75.5,69.0,29.93,South,180,0.0,0.0,80,0.00,,,0.63,WUHU216HW,2013-06-22 16:23:00,
2013-06-22 12:51:00,0.0,0.0,29.90,SE,135,0.0,0.0,74,0.00,,,0.63,WUHU216HW,2013-06-22 17:51:00,
2013-06-22 12:56:00,0.0,0.0,29.90,SE,135,0.0,0.0,74,0.00,,,0.63,WUHU216HW,2013-06-22 17:56:00,
2013-06-22 13:01:00,0.0,0.0,29.90,SE,135,0.0,0.0,74,0.00,,,0.63,WUHU216HW,2013-06-22 18:01:00,
2013-06-22 13:06:00,0.0,0.0,29.89,SE,135,0.0,0.0,74,0.00,,,0.63,WUHU216HW,2013-06-22 18:06:00,
2013-06-22 13:11:00,0.0,0.0,29.89,South,180,0.0,0.0,74,0.00,,,0.63,WUHU216HW,2013-06-22 18:11:00,
2013-06-22 13:16:00,0.0,0.0,29.89,South,180,0.0,0.0,74,0.00,,,0.63,WUHU216HW,2013-06-22 18:16:00,
2013-06-22 13:21:00,0.0,0.0,29.89,South,180,0.0,0.0,74,0.00,,,0.63,WUHU216HW,2013-06-22 18:21:00,
2013-06-22 13:26:00,0.0,0.0,29.90,SSW,203,0.0,0.0,74,0.00,,,0.63,WUHU216HW,2013-06-22 18:26:00,
2013-06-22 13:31:00,0.0,0.0,29.90,SSW,203,0.0,0.0,74,0.00,,,0.63,WUHU216HW,2013-06-22 18:31:00,
2013-06-22 13:36:00,0.0,0.0,29.90,SSW,203,0.0,0.0,74,0.00,,,0.63,WUHU216HW,2013-06-22 18:36:00,
2013-06-22 13:57:00,87.6,73.9,29.89,SSW,203,0.0,0.0,64,0.00,,,0.63,WUHU216HW,2013-06-22 18:57:00,
2013-06-22 14:02:00,87.6,73.9,29.89,WSW,248,0.0,0.0,64,0.00,,,0.63,WUHU216HW,2013-06-22 19:02:00,
2013-06-22 14:07:00,87.6,73.9,29.89,WSW,248,0.0,0.0,64,0.00,,,0.63,WUHU216HW,2013-06-22 19:07:00,
2013-06-22 14:12:00,87.6,73.9,29.89,WSW,248,0.0,0.0,64,0.00,,,0.63,WUHU216HW,2013-06-22 19:12:00,
2013-06-22 14:17:00,87.6,73.9,29.89,WSW,248,0.0,0.0,64,0.00,,,0.63,WUHU216HW,2013-06-22 19:17:00,
2013-06-22 14:33:00,86.1,72.0,29.88,NNE,23,0.0,0.0,62,0.00,,,0.63,WUHU216HW,2013-06-22 19:33:00,
2013-06-22 14:38:00,86.1,71.6,29.88,NNE,23,0.0,0.0,62,0.00,,,0.63,WUHU216HW,2013-06-22 19:38:00,
2013-06-22 14:43:00,86.1,71.6,29.88,NE,45,0.0,0.0,62,0.00,,,0.63,WUHU216HW,2013-06-22 19:43:00,
2013-06-22 14:48:00,87.0,72.9,29.88,East,90,0.0,0.0,63,0.00,,,0.63,WUHU216HW,2013-06-22 19:48:00,
2013-06-22 14:53:00,87.4,73.3,29.89,SE,135,0.0,0.0,63,0.00,,,0.63,WUHU216HW,2013-06-22 19:53:00,
2013-06-22 14:58:00,87.0,72.5,29.89,ENE,68,0.0,0.0,62,0.00,,,0.63,WUHU216HW,2013-06-22 19:58:00,
2013-06-22 15:03:00,87.0,72.9,29.89,ENE,68,0.0,0.0,63,0.00,,,0.63,WUHU216HW,2013-06-22 20:03:00,
2013-06-22 15:10:00,87.0,73.4,29.89,NNE,23,0.0,0.0,64,0.00,,,0.63,WUHU216HW,2013-06-22 20:10:00,
2013-06-22 15:16:00,87.0,72.9,29.90,NE,45,0.0,0.0,63,0.00,,,0.63,WUHU216HW,2013-06-22 20:16:00,
2013-06-22 15:21:00,85.2,72.1,29.90,NE,45,0.0,0.0,65,0.00,,,0.63,WUHU216HW,2013-06-22 20:21:00,
2013-06-22 15:26:00,85.2,72.1,29.90,NE,45,0.0,0.0,65,0.00,,,0.63,WUHU216HW,2013-06-22 20:26:00,
2013-06-22 15:31:00,85.2,72.1,29.90,NE,45,0.0,0.0,65,0.00,,,0.63,WUHU216HW,2013-06-22 20:31:00,
2013-06-22 16:18:00,85.1,71.9,29.89,NE,45,0.0,0.0,65,0.00,,,0.63,WUHU216HW,2013-06-22 21:18:00,
2013-06-22 16:29:00,85.8,72.6,29.89,North,0,0.0,0.0,65,0.00,,,0.63,WUHU216HW,2013-06-22 21:29:00,
2013-06-22 16:30:00,85.8,72.6,29.88,SW,225,0.0,0.0,65,0.00,,,0.63,WUHU216HW,2013-06-22 21:30:00,
2013-06-22 16:32:00,85.8,72.6,29.88,SW,225,0.0,0.0,65,0.00,,,0.63,WUHU216HW,2013-06-22 21:32:00,
2013-06-22 16:33:00,85.8,72.6,29.88,SW,225,0.0,0.0,65,0.00,,,0.63,WUHU216HW,2013-06-22 21:33:00,
2013-06-22 16:35:00,85.8,72.6,29.88,SW,225,0.0,0.0,65,0.00,,,0.63,WUHU216HW,2013-06-22 21:35:00,
2013-06-22 16:36:00,85.8,72.6,29.88,SW,225,0.0,0.0,65,0.00,,,0.63,WUHU216HW,2013-06-22 21:36:00,
2013-06-22 16:38:00,85.8,72.6,29.88,SW,225,0.0,0.0,65,0.00,,,0.63,WUHU216HW,2013-06-22 21:38:00,
2013-06-22 16:39:00,85.8,72.6,29.88,SW,225,0.0,0.0,65,0.00,,,0.63,WUHU216HW,2013-06-22 21:39:00,
2013-06-22 16:41:00,84.9,71.8,29.88,SW,225,0.0,0.0,65,0.00,,,0.63,WUHU216HW,2013-06-22 21:41:00,
2013-06-22 16:42:00,84.9,71.8,29.87,SW,225,0.0,0.0,65,0.00,,,0.63,WUHU216HW,2013-06-22 21:42:00,
2013-06-22 16:44:00,85.1,71.9,29.87,SW,225,0.0,0.0,65,0.00,,,0.63,WUHU216HW,2013-06-22 21:44:00,
2013-06-22 16:45:00,85.1,71.9,29.87,SW,225,0.0,0.0,65,0.00,,,0.63,WUHU216HW,2013-06-22 21:45:00,
2013-06-22 16:47:00,85.2,72.1,29.87,East,90,0.0,0.0,65,0.00,,,0.63,WUHU216HW,2013-06-22 21:47:00,
2013-06-22 16:57:00,86.1,73.0,29.87,WNW,293,0.0,0.0,65,0.00,,,0.63,WUHU216HW,2013-06-22 21:57:00,
2013-06-22 16:58:00,86.1,73.0,29.87,WNW,293,0.0,0.0,65,0.00,,,0.63,WUHU216HW,2013-06-22 21:58:00,
2013-06-22 17:00:00,86.1,73.0,29.87,WNW,293,0.0,0.0,65,0.00,,,0.63,WUHU216HW,2013-06-22 22:00:00,
2013-06-22 17:01:00,86.1,73.0,29.87,WNW,293,0.0,0.0,65,0.00,,,0.63,WUHU216HW,2013-06-22 22:01:00,
2013-06-22 17:02:00,86.1,73.0,29.87,WNW,293,0.0,0.0,65,0.00,,,0.63,WUHU216HW,2013-06-22 22:02:00,
2013-06-22 17:03:00,86.1,73.0,29.87,WNW,293,0.0,0.0,65,0.00,,,0.63,WUHU216HW,2013-06-22 22:03:00,
2013-06-22 17:14:00,87.9,73.8,29.86,ENE,68,0.0,0.0,63,0.00,,,0.63,WUHU216HW,2013-06-22 22:14:00,
2013-06-22 17:17:00,87.0,72.9,29.86,ESE,113,0.0,0.0,63,0.00,,,0.63,WUHU216HW,2013-06-22 22:17:00,
2013-06-22 17:18:00,87.0,72.9,29.86,ESE,113,0.0,0.0,63,0.00,,,0.63,WUHU216HW,2013-06-22 22:18:00,
2013-06-22 17:20:00,87.0,72.9,29.86,ESE,113,0.0,0.0,63,0.00,,,0.63,WUHU216HW,2013-06-22 22:20:00,
2013-06-22 17:21:00,87.0,72.9,29.86,ESE,113,0.0,0.0,63,0.00,,,0.63,WUHU216HW,2013-06-22 22:21:00,
2013-06-22 17:23:00,85.8,71.7,29.86,ESE,113,0.0,0.0,63,0.00,,,0.63,WUHU216HW,2013-06-22 22:23:00,
2013-06-22 17:24:00,85.8,71.7,29.86,ESE,113,0.0,0.0,63,0.00,,,0.63,WUHU216HW,2013-06-22 22:24:00,
2013-06-22 17:26:00,85.8,72.2,29.86,ENE,68,0.0,0.0,64,0.00,,,0.63,WUHU216HW,2013-06-22 22:26:00,
2013-06-22 17:27:00,85.6,72.5,29.86,ENE,68,0.0,0.0,65,0.00,,,0.63,WUHU216HW,2013-06-22 22:27:00,
2013-06-22 17:29:00,85.6,72.5,29.86,ENE,68,0.0,0.0,65,0.00,,,0.63,WUHU216HW,2013-06-22 22:29:00,
2013-06-22 17:30:00,85.6,72.5,29.86,ENE,68,0.0,0.0,65,0.00,,,0.63,WUHU216HW,2013-06-22 22:30:00,
2013-06-22 17:32:00,85.6,72.5,29.86,ENE,68,0.0,0.0,65,0.00,,,0.63,WUHU216HW,2013-06-22 22:32:00,
2013-06-22 17:33:00,85.2,72.6,29.86,ESE,113,0.0,0.0,66,0.00,,,0.63,WUHU216HW,2013-06-22 22:33:00,
2013-06-22 17:44:00,84.5,71.9,29.87,WSW,248,0.0,0.0,66,0.00,,,0.63,WUHU216HW,2013-06-22 22:44:00,
2013-06-22 17:49:00,84.5,72.8,29.86,NE,45,0.0,0.0,68,0.00,,,0.63,WUHU216HW,2013-06-22 22:49:00,
2013-06-22 17:54:00,83.3,71.6,29.86,NE,45,0.0,0.0,68,0.00,,,0.63,WUHU216HW,2013-06-22 22:54:00,
2013-06-22 17:55:00,83.3,71.6,29.86,NE,45,0.0,0.0,68,0.00,,,0.63,WUHU216HW,2013-06-22 22:55:00,
2013-06-22 17:57:00,82.5,70.8,29.87,NE,45,0.0,0.0,68,0.00,,,0.63,WUHU216HW,2013-06-22 22:57:00,
2013-06-22 17:58:00,82.5,70.8,29.87,NE,45,0.0,0.0,68,0.00,,,0.63,WUHU216HW,2013-06-22 22:58:00,
2013-06-22 18:00:00,82.2,70.5,29.87,NNE,23,0.0,0.0,68,0.00,,,0.63,WUHU216HW,2013-06-22 23:00:00,
2013-06-22 18:01:00,82.2,70.9,29.86,ENE,68,0.0,0.0,69,0.00,,,0.63,WUHU216HW,2013-06-22 23:01:00,
2013-06-22 18:03:00,82.2,70.9,29.86,ENE,68,0.0,0.0,69,0.00,,,0.63,WUHU216HW,2013-06-22 23:03:00,
2013-06-22 18:04:00,82.2,70.9,29.86,ENE,68,0.0,0.0,69,0.00,,,0.63,WUHU216HW,2013-06-22 23:04:00,
2013-06-22 18:06:00,82.0,70.8,29.86,ENE,68,0.0,0.0,69,0.00,,,0.63,WUHU216HW,2013-06-22 23:06:00,
2013-06-22 18:07:00,82.2,70.8,29.86,NE,45,0.0,0.0,69,0.00,,,0.63,WUHU216HW,2013-06-22 23:07:00,
2013-06-22 18:09:00,82.2,70.9,29.86,NE,45,0.0,0.0,69,0.00,,,0.63,WUHU216HW,2013-06-22 23:09:00,
2013-06-22 18:10:00,82.2,70.9,29.86,ENE,68,0.0,0.0,69,0.00,,,0.63,WUHU216HW,2013-06-22 23:10:00,
2013-06-22 18:12:00,82.5,71.3,29.86,ENE,68,0.0,0.0,69,0.00,,,0.63,WUHU216HW,2013-06-22 23:12:00,
2013-06-22 18:13:00,82.5,71.3,29.86,ENE,68,0.0,0.0,69,0.00,,,0.63,WUHU216HW,2013-06-22 23:13:00,
2013-06-22 18:15:00,82.5,71.3,29.86,NNE,23,0.0,0.0,69,0.00,,,0.63,WUHU216HW,2013-06-22 23:15:00,
2013-06-22 18:16:00,82.7,71.5,29.86,NNE,23,0.0,0.0,69,0.00,,,0.63,WUHU216HW,2013-06-22 23:16:00,
2013-06-22 18:17:00,82.7,71.5,29.86,NNE,23,0.0,0.0,69,0.00,,,0.63,WUHU216HW,2013-06-22 23:17:00,
2013-06-22 18:27:00,82.2,70.5,29.86,NE,45,0.0,0.0,68,0.00,,,0.63,WUHU216HW,2013-06-22 23:27:00,
2013-06-22 18:32:00,81.8,70.2,29.87,ENE,68,0.0,0.0,68,0.00,,,0.63,WUHU216HW,2013-06-22 23:32:00,
2013-06-22 18:37:00,80.6,70.3,29.87,NE,45,0.0,0.0,71,0.00,,,0.63,WUHU216HW,2013-06-22 23:37:00,
2013-06-22 18:42:00,80.6,70.3,29.86,NE,45,0.0,0.0,71,0.00,,,0.63,WUHU216HW,2013-06-22 23:42:00,
2013-06-22 18:47:00,80.6,70.3,29.86,NE,45,0.0,0.0,71,0.00,,,0.63,WUHU216HW,2013-06-22 23:47:00,
2013-06-22 18:52:00,80.6,67.7,29.86,NE,45,0.0,0.0,65,0.00,,,0.63,WUHU216HW,2013-06-22 23:52:00,
2013-06-22 18:57:00,84.9,71.3,29.86,East,90,0.0,0.0,64,0.00,,,0.63,WUHU216HW,2013-06-22 23:57:00,
2013-06-22 19:02:00,84.7,71.6,29.86,ENE,68,0.0,0.0,65,0.00,,,0.63,WUHU216HW,2013-06-23 00:02:00,
2013-06-22 19:07:00,84.9,71.8,29.86,ENE,68,0.0,0.0,65,0.00,,,0.63,WUHU216HW,2013-06-23 00:07:00,
2013-06-22 19:12:00,84.9,71.3,29.86,ENE,68,0.0,0.0,64,0.00,,,0.63,WUHU216HW,2013-06-23 00:12:00,
2013-06-22 19:17:00,84.9,71.3,29.86,ENE,68,0.0,0.0,64,0.00,,,0.63,WUHU216HW,2013-06-23 00:17:00,
2013-06-22 19:22:00,84.9,71.3,29.85,ENE,68,0.0,0.0,64,0.00,,,0.63,WUHU216HW,2013-06-23 00:22:00,
2013-06-22 19:46:00,82.9,71.6,29.84,ENE,68,0.0,0.0,69,0.00,,,0.63,WUHU216HW,2013-06-23 00:46:00,
2013-06-22 19:51:00,80.7,69.6,29.84,ESE,113,0.0,0.0,69,0.00,,,0.63,WUHU216HW,2013-06-23 00:51:00,
2013-06-22 19:56:00,80.0,69.8,29.84,NNE,23,0.0,0.0,71,0.00,,,0.63,WUHU216HW,2013-06-23 00:56:00,
2013-06-22 20:01:00,79.3,69.5,29.84,ENE,68,0.0,0.0,72,0.00,,,0.63,WUHU216HW,2013-06-23 01:01:00,
2013-06-22 20:06:00,78.4,69.0,29.84,NNE,23,0.0,0.0,73,0.00,,,0.63,WUHU216HW,2013-06-23 01:06:00,
2013-06-22 20:11:00,77.7,68.7,29.83,ENE,68,0.0,0.0,74,0.00,,,0.63,WUHU216HW,2013-06-23 01:11:00,
2013-06-22 20:16:00,77.1,68.6,29.83,NE,45,0.0,0.0,75,0.00,,,0.63,WUHU216HW,2013-06-23 01:16:00,
2013-06-22 20:21:00,76.8,69.0,29.83,NE,45,0.0,0.0,77,0.00,,,0.63,WUHU216HW,2013-06-23 01:21:00,
2013-06-22 20:26:00,76.4,68.7,29.84,NNE,23,0.0,0.0,77,0.00,,,0.63,WUHU216HW,2013-06-23 01:26:00,
2013-06-22 20:31:00,76.1,68.7,29.84,ENE,68,0.0,0.0,78,0.00,,,0.63,WUHU216HW,2013-06-23 01:31:00,
2013-06-22 20:36:00,75.9,68.5,29.84,NE,45,0.0,0.0,78,0.00,,,0.63,WUHU216HW,2013-06-23 01:36:00,
2013-06-22 20:41:00,75.7,68.8,29.84,NE,45,0.0,0.0,79,0.00,,,0.63,WUHU216HW,2013-06-23 01:41:00,
2013-06-22 20:46:00,75.5,69.0,29.84,NNE,23,0.0,0.0,80,0.00,,,0.63,WUHU216HW,2013-06-23 01:46:00,
2013-06-22 20:51:00,75.5,69.0,29.84,ENE,68,0.0,0.0,80,0.00,,,0.63,WUHU216HW,2013-06-23 01:51:00,
2013-06-22 20:56:00,75.0,68.8,29.84,NE,45,0.0,0.0,81,0.00,,,0.63,WUHU216HW,2013-06-23 01:56:00,
2013-06-22 21:01:00,75.0,68.8,29.83,NE,45,0.0,0.0,81,0.00,,,0.63,WUHU216HW,2013-06-23 02:01:00,
2013-06-22 21:06:00,74.8,68.7,29.83,NE,45,0.0,0.0,81,0.00,,,0.63,WUHU216HW,2013-06-23 02:06:00,
2013-06-22 21:11:00,74.4,68.3,29.83,ENE,68,0.0,0.0,81,0.00,,,0.63,WUHU216HW,2013-06-23 02:11:00,
2013-06-22 21:16:00,74.4,68.3,29.84,ENE,68,0.0,0.0,81,0.00,,,0.63,WUHU216HW,2013-06-23 02:16:00,
2013-06-22 21:21:00,73.9,67.8,29.83,ENE,68,0.0,0.0,81,0.00,,,0.63,WUHU216HW,2013-06-23 02:21:00,
2013-06-22 21:26:00,73.9,67.8,29.83,ENE,68,0.0,0.0,81,0.00,,,0.63,WUHU216HW,2013-06-23 02:26:00,
2013-06-22 21:31:00,73.9,67.8,29.83,ENE,68,0.0,0.0,81,0.00,,,0.63,WUHU216HW,2013-06-23 02:31:00,
2013-06-22 21:36:00,73.9,67.8,29.83,ENE,68,0.0,0.0,81,0.00,,,0.63,WUHU216HW,2013-06-23 02:36:00,
2013-06-22 21:41:00,73.9,67.8,29.84,ENE,68,0.0,0.0,81,0.00,,,0.63,WUHU216HW,2013-06-23 02:41:00,
2013-06-22 22:46:00,71.4,65.9,29.85,SSE,158,0.0,0.0,83,0.00,,,0.63,WUHU216HW,2013-06-23 03:46:00,
2013-06-22 22:51:00,71.4,65.9,29.85,SSE,158,0.0,0.0,83,0.00,,,0.63,WUHU216HW,2013-06-23 03:51:00,
2013-06-22 22:56:00,71.2,66.1,29.85,SE,135,0.0,0.0,84,0.00,,,0.63,WUHU216HW,2013-06-23 03:56:00,
2013-06-22 23:01:00,71.2,66.1,29.84,SE,135,0.0,0.0,84,0.00,,,0.63,WUHU216HW,2013-06-23 04:01:00,
2013-06-22 23:06:00,70.8,65.7,29.83,SE,135,0.0,0.0,84,0.00,,,0.63,WUHU216HW,2013-06-23 04:06:00,
2013-06-22 23:11:00,70.8,65.7,29.83,SE,135,0.0,0.0,84,0.00,,,0.63,WUHU216HW,2013-06-23 04:11:00,
2013-06-22 23:16:00,70.8,66.1,29.83,East,90,0.0,0.0,85,0.00,,,0.63,WUHU216HW,2013-06-23 04:16:00,
2013-06-22 23:21:00,70.7,65.9,29.83,East,90,0.0,0.0,85,0.00,,,0.63,WUHU216HW,2013-06-23 04:21:00,
2013-06-22 23:26:00,70.7,65.9,29.83,East,90,0.0,0.0,85,0.00,,,0.63,WUHU216HW,2013-06-23 04:26:00,
2013-06-22 23:31:00,70.7,65.9,29.85,East,90,0.0,0.0,85,0.00,,,0.63,WUHU216HW,2013-06-23 04:31:00,
2013-06-22 23:36:00,70.7,66.2,29.85,ESE,113,0.0,0.0,86,0.00,,,0.63,WUHU216HW,2013-06-23 04:36:00,
2013-06-22 23:41:00,70.7,66.6,29.85,SE,135,0.0,0.0,87,0.00,,,0.63,WUHU216HW,2013-06-23 04:41:00,
2013-06-22 23:46:00,70.8,66.7,29.84,East,90,0.0,0.0,87,0.00,,,0.63,WUHU216HW,2013-06-23 04:46:00,
2013-06-22 23:51:00,70.8,66.7,29.84,ESE,113,0.0,0.0,87,0.00,,,0.63,WUHU216HW,2013-06-23 04:51:00,
2013-06-22 23:56:00,70.8,66.7,29.85,ESE,113,0.0,0.0,87,0.00,,,0.63,WUHU216HW,2013-06-23 04:56:00,